Weather History for Chitose AB, Japan

Change the Weather History Date:

Friday, December 7, 2012

  Actual Average Record
Temperature  
Mean Temperature 24 °F -  
Max Temperature 28 °F 30 °F 44 °F (2004)
Min Temperature 21 °F 12 °F 3 °F (2014)
Degree Days  
Heating Degree Days 40    
Moisture  
Dew Point 13 °F    
Average Humidity 62    
Maximum Humidity 86    
Minimum Humidity 37    
Precipitation  
Precipitation 0.00 in - - ()
Sea Level Pressure  
Sea Level Pressure 29.80 in    
Wind  
Wind Speed 11 mph ()    
Max Wind Speed 21 mph    
Max Gust Speed 31 mph    
Visibility 5.8 miles    
Events Snow    
Averages and records for this station are not official NWS values.
T = Trace of Precipitation, MM = Missing Value Source: Averaged Metar Reports

Daily Weather History Graph

Daily Weather History Graph

Search for Another Location

Airport:

Trip Planner

Search our weather history database for the weather conditions in past years. The results will help you decide how hot, cold, wet, or windy it might be!

Date:

Astronomy

Dec. 07, 2012 Rise Set
Actual Time 6:50 AM JST 3:59 PM JST
Civil Twilight 6:18 AM JST 4:31 PM JST
Nautical Twilight 5:42 AM JST 5:06 PM JST
Astronomical Twilight 5:08 AM JST 5:40 PM JST
Moon No Moon Rise 11:44 AM JST (12/7)
Length of Visible Light 10h 13m
Length of Day
9h 09m
Last Quarter, 45% of the Moon is Illuminated
Dec 7
Last Quarter
Dec 13
New
Dec 20
First Quarter
Dec 28
Full
Jan 5
Last Quarter

Hourly Weather History & Observations

Time (JST) Temp. Windchill Dew Point Humidity Pressure Visibility Wind Dir Wind Speed Gust Speed Precip Events Conditions
12:00 AM 24.8 °F 13.4 °F 17.6 °F 74% 29.71 in 6.2 mi SW 12.7 mph - N/A Snow Light Snow Showers
12:30 AM 24.8 °F 14.6 °F 15.8 °F 69% 29.71 in 6.2 mi SSW 10.4 mph - N/A Snow Light Snow Showers
1:00 AM 26.6 °F 13.1 °F 12.2 °F 55% 29.68 in 6.2 mi SW 19.6 mph - N/A Snow Light Snow Showers
1:30 AM 26.6 °F 14.7 °F 12.2 °F 55% 29.71 in 6.2 mi WSW 15.0 mph - N/A Snow Light Snow Showers
2:00 AM 24.8 °F 12.9 °F 14.0 °F 64% 29.74 in 6.2 mi SW 13.8 mph - N/A Snow Light Snow Showers
2:30 AM 24.8 °F 17.9 °F 17.6 °F 74% 29.74 in 6.2 mi SSW 5.8 mph - N/A Snow Light Snow Showers
3:00 AM 24.8 °F 12.4 °F 17.6 °F 74% 29.74 in 6.2 mi WSW 15.0 mph - N/A Snow Light Snow Showers
3:30 AM 24.8 °F 17.9 °F 14.0 °F 64% 29.74 in 6.2 mi WSW 5.8 mph - N/A Snow Light Snow Showers
4:00 AM 24.8 °F 12.9 °F 8.6 °F 50% 29.74 in 6.2 mi WSW 13.8 mph - N/A Snow Light Snow Showers
4:30 AM 23.0 °F 11.7 °F 6.8 °F 50% 29.74 in 6.2 mi WSW 11.5 mph - N/A Snow Light Snow Showers
5:00 AM 24.8 °F 10.3 °F 5.0 °F 43% 29.74 in 6.2 mi WSW 20.7 mph - N/A Snow Light Snow Showers
5:30 AM 24.8 °F 10.3 °F 5.0 °F 43% 29.74 in 6.2 mi WSW 20.7 mph - N/A   Partly Cloudy
5:33 AM 24.8 °F 10.7 °F 5.0 °F 43% 29.74 in 6.2 mi WSW 19.6 mph 31.1 mph N/A   Partly Cloudy
6:00 AM 24.8 °F 14.0 °F 6.8 °F 46% 29.77 in 6.2 mi SW 11.5 mph - N/A   Scattered Clouds
6:30 AM 24.8 °F 15.3 °F 8.6 °F 50% 29.77 in 6.2 mi SSW 9.2 mph - N/A   Scattered Clouds
7:00 AM 23.0 °F 12.4 °F 12.2 °F 63% 29.80 in 6.2 mi South 10.4 mph - N/A   Mostly Cloudy
7:30 AM 24.8 °F 12.9 °F 10.4 °F 54% 29.80 in 6.2 mi South 13.8 mph - N/A   Mostly Cloudy
8:00 AM 24.8 °F 14.0 °F 8.6 °F 50% 29.80 in 6.2 mi SW 11.5 mph - N/A   Mostly Cloudy
8:30 AM 24.8 °F 16.1 °F 8.6 °F 50% 29.83 in 6.2 mi SSW 8.1 mph - N/A   Mostly Cloudy
9:00 AM 26.6 °F 15.7 °F 10.4 °F 51% 29.83 in 6.2 mi South 12.7 mph - N/A Snow Light Snow Showers
9:30 AM 26.6 °F 15.2 °F 14.0 °F 59% 29.83 in 6.2 mi South 13.8 mph - N/A Snow Light Snow Showers
10:00 AM 26.6 °F 14.3 °F 14.0 °F 59% 29.83 in 6.2 mi SSW 16.1 mph - N/A   Mostly Cloudy
10:30 AM 28.4 °F 18.0 °F 14.0 °F 55% 29.83 in 6.2 mi SSW 12.7 mph - N/A   Scattered Clouds
10:41 AM 28.4 °F 19.1 °F 12.2 °F 51% 29.83 in 6.2 mi West 10.4 mph - N/A   Mostly Cloudy
11:00 AM 28.4 °F 17.0 °F 12.2 °F 51% 29.83 in 6.2 mi South 15.0 mph - N/A   Scattered Clouds
11:30 AM 26.6 °F 16.8 °F 10.4 °F 51% 29.83 in 6.2 mi SW 10.4 mph - N/A   Mostly Cloudy
12:00 PM 26.6 °F 16.2 °F 8.6 °F 47% 29.80 in 6.2 mi WSW 11.5 mph - N/A Snow Light Snow Showers
12:30 PM 26.6 °F 20.0 °F 10.4 °F 51% 29.80 in 6.2 mi West 5.8 mph - N/A   Mostly Cloudy
12:43 PM 28.4 °F 16.2 °F 8.6 °F 43% 29.80 in 6.2 mi West 17.3 mph - N/A   Scattered Clouds
1:00 PM 28.4 °F 18.0 °F 5.0 °F 37% 29.80 in 6.2 mi West 12.7 mph 25.3 mph N/A   Scattered Clouds
1:30 PM 28.4 °F 16.6 °F 6.8 °F 40% 29.80 in 6.2 mi West 16.1 mph - N/A   Scattered Clouds
2:00 PM 26.6 °F 13.8 °F 8.6 °F 47% 29.80 in 6.2 mi WSW 17.3 mph - N/A   Mostly Cloudy
2:30 PM 26.6 °F 16.8 °F 8.6 °F 47% 29.83 in 6.2 mi SW 10.4 mph - N/A   Mostly Cloudy
3:00 PM 24.8 °F 13.4 °F 14.0 °F 64% 29.83 in 6.2 mi SSW 12.7 mph - N/A Snow Light Snow Showers
3:30 PM 24.8 °F 14.0 °F 10.4 °F 54% 29.83 in 6.2 mi SW 11.5 mph - N/A   Partly Cloudy
3:41 PM 24.8 °F 16.1 °F 12.2 °F 59% 29.83 in 6.2 mi South 8.1 mph - N/A   Partly Cloudy
4:00 PM 23.0 °F 13.1 °F 14.0 °F 68% 29.83 in 6.2 mi ESE 9.2 mph - N/A   Partly Cloudy
4:30 PM 23.0 °F 13.9 °F 15.8 °F 74% 29.83 in 6.2 mi SE 8.1 mph - N/A   Partly Cloudy
5:00 PM 23.0 °F 11.7 °F 15.8 °F 74% 29.83 in 6.2 mi SE 11.5 mph - N/A   Scattered Clouds
5:30 PM 23.0 °F 11.1 °F 17.6 °F 80% 29.83 in 6.2 mi South 12.7 mph - N/A Snow Light Snow Showers
5:41 PM 23.0 °F 11.1 °F 17.6 °F 80% 29.86 in - South 12.7 mph - N/A Snow Light Snow Showers
5:49 PM 23.0 °F 13.1 °F 17.6 °F 80% 29.86 in 3.1 mi South 9.2 mph - N/A Snow Light Snow Showers
6:00 PM 23.0 °F 14.7 °F 17.6 °F 80% 29.86 in 5.0 mi SSE 6.9 mph - N/A Snow Light Snow Showers
6:14 PM 23.0 °F 18.4 °F 17.6 °F 80% 29.86 in - South 3.5 mph - N/A Snow Light Snow Showers
6:16 PM 23.0 °F 18.4 °F 17.6 °F 80% 29.86 in - SSE 3.5 mph - N/A Snow Light Snow Showers
6:21 PM 23.0 °F 18.4 °F 19.4 °F 86% 29.86 in 1.4 mi SE 3.5 mph - N/A Snow Light Snow Showers
6:30 PM 23.0 °F 15.8 °F 17.6 °F 80% 29.86 in 1.4 mi SE 5.8 mph - N/A Snow Light Snow Showers
6:36 PM 23.0 °F 15.8 °F 19.4 °F 86% 29.83 in 1.5 mi SE 5.8 mph - N/A Snow Light Snow Showers
6:41 PM 23.0 °F 17.0 °F 17.6 °F 80% 29.83 in - SE 4.6 mph - N/A Snow Light Snow Showers
6:48 PM 21.2 °F 13.6 °F 17.6 °F 86% 29.83 in 3.1 mi ESE 5.8 mph - N/A Snow Light Snow Showers
7:00 PM 23.0 °F 14.7 °F 17.6 °F 80% 29.83 in 6.2 mi ESE 6.9 mph - N/A Snow Light Snow Showers
7:30 PM 21.2 °F 10.9 °F 15.8 °F 80% 29.83 in 6.2 mi SSE 9.2 mph - N/A   Partly Cloudy
8:00 PM 23.0 °F 15.8 °F 14.0 °F 68% 29.83 in 6.2 mi South 5.8 mph - N/A   Scattered Clouds
8:30 PM 23.0 °F 13.1 °F 14.0 °F 68% 29.83 in 6.2 mi South 9.2 mph - N/A Snow Light Snow Showers
9:00 PM 21.2 °F 14.9 °F 14.0 °F 74% 29.83 in 6.2 mi SSE 4.6 mph - N/A   Scattered Clouds
9:30 PM 24.8 °F 13.4 °F 12.2 °F 59% 29.83 in 6.2 mi SSE 12.7 mph - N/A Snow Light Snow Showers
10:00 PM 24.8 °F 12.9 °F 12.2 °F 59% 29.83 in 6.2 mi South 13.8 mph - N/A   Mostly Cloudy
10:30 PM 24.8 °F 12.9 °F 14.0 °F 64% 29.83 in 6.2 mi South 13.8 mph - N/A Snow Light Snow Showers
11:00 PM 23.0 °F 10.1 °F 14.0 °F 68% 29.83 in 6.2 mi SSE 15.0 mph - N/A   Partly Cloudy
11:30 PM 23.0 °F 12.4 °F 12.2 °F 63% 29.83 in 6.2 mi South 10.4 mph - N/A   Partly Cloudy